Location: Allie Creek
(37.5926°N, 89.8526°W)
Time: 23:26:16
(UTC+00:00)

YAOGAN 1 - Pass Details

Date: 26 September 2023
Orbit: 613 x 616 km, 97.8° (Epoch: 11 December)

Event Time Altitude Azimuth Distance (km) Brightness Sun altitude
Rises 01:03:12 0° 175° (S) 2,865 5.8 -14.9°
Reaches altitude 10° 01:05:23 10° 179° (S) 1,965 5.0 -15.3°
Maximum altitude 01:09:37 60° 259° (W) 703 3.1 -16.1°
Drops below altitude 10° 01:13:52 10° 340° (NNW) 1,981 5.6 -17.0°
Sets 01:16:05 0° 344° (NNW) 2,891 6.4 -17.4°
